Tracking 31030 objects as of 17-Jul-2025
HD Live streaming from Space Station
objects crossing your sky now

STARLINK-11403

Track STARLINK-11403 now!
10-day predictions
STARLINK-11403 is classified as:


NORAD ID: 63060
Int'l Code: 2025-035J
Perigee: 362.3 km
Apogee: 364.7 km
Inclination: 43.0 °
Period: 91.7 minutes
Semi major axis: 6734 km
RCS: Unknown
Launch date: February 21, 2025
Source: United States (US)
Launch site: AIR FORCE EASTERN TEST RANGE (AFETR)
Your satellite tracking list
Your tracking list is empty




NASA's NSSDC Master Catalog

Two Line Element Set (TLE):
1 63060U 25035J   25197.75625472  .00161840  00000-0  12387-2 0  9995
2 63060  42.9992 357.5594 0001780 282.1173  77.9495 15.70871402 24114
Source of the keplerian elements: AFSPC